Погода в Тате

Венгрия     47°38′59″N   18°19′35″E
темп.,
°C
ветер,
м/с
пор.,
м/с
влажн.,
%
обл.,
%
осадки,
мм/ч
давл.,
гПа
погр.,
м
17 мая, вт
вт1723:00+17ю2278100 0.5 101711
02:00+15зюз229399 0.9 101726
05:00+14з229588 0.6 101719
08:00+18сз4987100 0.6 1017502
11:00+17сз5990100 0.1 1018546
14:00+20зсз81074100 1.1 10161140
17:00+20сз7117397 0.6 10151187
20:00+16ссз6118324 1.0 1016450
18 мая, ср
ср1823:00+14ссз11875 0.1 102012
02:00+12зюз118977 0.1 102212
05:00+10ссв11920 0.0 102312
08:00+14с228111 0.0 1025384
11:00+18всв33535 0.0 10271495
14:00+19вюв43517 0.1 10271787
17:00+19юв23433 0.0 10271733
20:00+14юв33610 0.0 102821
19 мая, чт
чт1923:00+10ююв34550 0.0 102964
02:00+9юв22585 0.0 103021
05:00+8юв22615 0.0 103013
08:00+13ююв34555 0.0 1031282
11:00+18ю56410 0.0 10301012
14:00+21ю56375 0.0 10281248
17:00+21ю56415 0.0 10271191
20:00+16ююв346365 0.0 102646
20 мая, пт
пт2023:00+13ююв356241 0.0 102661
02:00+11юв3465100 0.0 102642
05:00+11юв3466100 0.0 102558
08:00+16ююв355875 0.0 1026258
11:00+21ю444867 0.0 1025789
14:00+25ююз334714 0.0 10231149
17:00+26ююз234861 0.0 10211207
20:00+20ююв467217 0.0 101986
21 мая, сб
сб2123:00+18ююв47707 0.0 101895
02:00+16ююв347470 0.0 101655
05:00+15юз2285100 0.4 101726
08:00+19з247657 0.4 1017252
11:00+25сз7106298 0.0 10161141
14:00+27сз8114893 0.0 10151969
17:00+25ссз61054100 0.0 10141513
20:00+20сз347098 0.0 101558